When you browse on this site, cookies collect data to enhance your experience and personalize the content and advertising you see.
Visit our Privacy Policy to learn more. By continuing to use the site, you agree to this use of cookies and data.
  • Em Portugal
  • Lista de países
  • Para 7 dias
  • Temperatura da água
  • Mapa do tempo
  • Widgets de tempo
  • user-avatar
    Iniciar Sessão

    Previsão horária em Montilla

    Hoje, 20 Novembro, Quarta-feira

    Tempo Temperatura Precipitação Vento Pressão Humidade
    00:00 +9°C° 0 mm 1 m/s 732 mmHg 68%
    01:00 +8°C° 0 mm 1 m/s 732 mmHg 69%
    02:00 +7°C° 0 mm 0 m/s 732 mmHg 69%
    03:00 +7°C° 0 mm 0 m/s 731 mmHg 69%
    04:00 +7°C° 0 mm 0 m/s 731 mmHg 69%
    05:00 +8°C° 0 mm 1 m/s 731 mmHg 70%
    06:00 +7°C° 0 mm 1 m/s 731 mmHg 70%
    07:00 +8°C° 0 mm 1 m/s 731 mmHg 66%
    08:00 +8°C° 0 mm 0 m/s 731 mmHg 63%
    09:00 +9°C° 0 mm 0 m/s 731 mmHg 59%
    10:00 +10°C° 0.4 mm 1 m/s 731 mmHg 63%
    11:00 +10°C° 0.4 mm 1 m/s 730 mmHg 67%
    12:00 +10°C° 0.4 mm 1 m/s 730 mmHg 71%
    13:00 +11°C° 0.2 mm 1 m/s 730 mmHg 72%
    14:00 +11°C° 0.2 mm 1 m/s 730 mmHg 72%
    15:00 +12°C° 0.2 mm 2 m/s 729 mmHg 72%
    16:00 +10°C° 0.2 mm 2 m/s 729 mmHg 76%
    17:00 +11°C° 0.2 mm 1 m/s 729 mmHg 81%
    18:00 +10°C° 0.2 mm 1 m/s 729 mmHg 85%
    19:00 +10°C° 0.1 mm 1 m/s 729 mmHg 86%
    20:00 +10°C° 0.1 mm 1 m/s 730 mmHg 87%
    21:00 +10°C° 0.1 mm 1 m/s 730 mmHg 87%
    22:00 +9°C° 0.1 mm 2 m/s 730 mmHg 89%
    23:00 +9°C° 0.1 mm 2 m/s 730 mmHg 91%

    Amanhã, 21 Novembro, Quinta-feira

    Tempo Temperatura Precipitação Vento Pressão Humidade
    00:00 +9°C° 0.1 mm 2 m/s 730 mmHg 92%
    01:00 +9°C° 0 mm 2 m/s 730 mmHg 92%
    02:00 +10°C° 0 mm 1 m/s 730 mmHg 92%
    03:00 +10°C° 0 mm 1 m/s 730 mmHg 91%
    04:00 +10°C° 0 mm 1 m/s 730 mmHg 90%
    05:00 +10°C° 0 mm 1 m/s 729 mmHg 89%
    06:00 +10°C° 0 mm 1 m/s 729 mmHg 88%
    07:00 +10°C° 0.2 mm 1 m/s 730 mmHg 88%
    08:00 +11°C° 0.2 mm 1 m/s 730 mmHg 88%
    09:00 +11°C° 0.2 mm 1 m/s 730 mmHg 87%
    10:00 +11°C° 0.5 mm 1 m/s 730 mmHg 88%
    11:00 +10°C° 0.5 mm 2 m/s 730 mmHg 88%
    12:00 +12°C° 0.5 mm 2 m/s 730 mmHg 89%
    13:00 +12°C° 0.3 mm 2 m/s 729 mmHg 89%
    14:00 +12°C° 0.3 mm 2 m/s 729 mmHg 88%
    15:00 +12°C° 0.3 mm 2 m/s 729 mmHg 88%
    16:00 +12°C° 0.2 mm 2 m/s 729 mmHg 89%
    17:00 +12°C° 0.2 mm 2 m/s 729 mmHg 89%
    18:00 +12°C° 0.2 mm 2 m/s 729 mmHg 90%
    19:00 +12°C° 0.1 mm 2 m/s 729 mmHg 90%
    20:00 +12°C° 0.1 mm 2 m/s 729 mmHg 90%
    21:00 +12°C° 0.1 mm 2 m/s 729 mmHg 90%
    22:00 +12°C° 0.2 mm 2 m/s 729 mmHg 90%
    23:00 +12°C° 0.2 mm 2 m/s 729 mmHg 90%

    Depois de amanhã, 22 Novembro, Sexta-feira

    Tempo Temperatura Precipitação Vento Pressão Humidade
    00:00 +12°C° 0.2 mm 2 m/s 728 mmHg 89%
    01:00 +12°C° 0 mm 2 m/s 728 mmHg 90%
    02:00 +12°C° 0 mm 2 m/s 728 mmHg 91%
    03:00 +10°C° 0 mm 2 m/s 728 mmHg 91%
    04:00 +10°C° 0 mm 3 m/s 727 mmHg 91%
    05:00 +11°C° 0 mm 3 m/s 727 mmHg 90%
    06:00 +11°C° 0 mm 3 m/s 726 mmHg 89%
    07:00 +11°C° 0 mm 3 m/s 726 mmHg 85%
    08:00 +12°C° 0 mm 4 m/s 726 mmHg 82%
    09:00 +13°C° 0 mm 4 m/s 726 mmHg 78%
    10:00 +14°C° 0.3 mm 5 m/s 725 mmHg 78%
    11:00 +15°C° 0.3 mm 6 m/s 724 mmHg 78%
    12:00 +16°C° 0.3 mm 7 m/s 723 mmHg 78%
    13:00 +15°C° 3.1 mm 8 m/s 722 mmHg 82%
    14:00 +15°C° 3.1 mm 8 m/s 722 mmHg 86%
    15:00 +13°C° 3.1 mm 9 m/s 721 mmHg 89%
    16:00 +13°C° 1.7 mm 8 m/s 721 mmHg 87%
    17:00 +13°C° 1.7 mm 6 m/s 722 mmHg 84%
    18:00 +13°C° 1.7 mm 5 m/s 722 mmHg 82%
    19:00 +12°C° 0.1 mm 5 m/s 723 mmHg 83%
    20:00 +12°C° 0.1 mm 5 m/s 723 mmHg 83%
    21:00 +10°C° 0.1 mm 5 m/s 724 mmHg 84%
    22:00 +10°C° 0.1 mm 5 m/s 724 mmHg 85%
    23:00 +10°C° 0.1 mm 6 m/s 724 mmHg 86%

    23 Novembro, Sábado

    Tempo Temperatura Precipitação Vento Pressão Humidade
    00:00 +10°C° 0.1 mm 6 m/s 724 mmHg 87%
    01:00 +10°C° 0.4 mm 7 m/s 724 mmHg 84%
    02:00 +10°C° 0.4 mm 8 m/s 724 mmHg 82%
    03:00 +10°C° 0.4 mm 9 m/s 724 mmHg 80%
    04:00 +9°C° 0.1 mm 8 m/s 724 mmHg 80%
    05:00 +8°C° 0.1 mm 6 m/s 725 mmHg 81%
    06:00 +8°C° 0.1 mm 5 m/s 725 mmHg 81%
    07:00 +8°C° 0 mm 5 m/s 726 mmHg 79%
    08:00 +8°C° 0 mm 6 m/s 727 mmHg 77%
    09:00 +9°C° 0 mm 6 m/s 727 mmHg 75%
    10:00 +10°C° 0 mm 6 m/s 728 mmHg 68%
    11:00 +11°C° 0 mm 6 m/s 728 mmHg 62%
    12:00 +13°C° 0 mm 6 m/s 729 mmHg 55%
    13:00 +13°C° 0 mm 6 m/s 729 mmHg 53%
    14:00 +13°C° 0 mm 6 m/s 729 mmHg 51%
    15:00 +12°C° 0 mm 7 m/s 729 mmHg 49%
    16:00 +11°C° 0 mm 6 m/s 729 mmHg 56%
    17:00 +10°C° 0 mm 5 m/s 730 mmHg 62%
    18:00 +10°C° 0 mm 4 m/s 731 mmHg 68%
    19:00 +9°C° 0 mm 3 m/s 731 mmHg 72%
    20:00 +9°C° 0 mm 3 m/s 732 mmHg 75%
    21:00 +8°C° 0 mm 2 m/s 732 mmHg 79%
    22:00 +8°C° 0 mm 2 m/s 733 mmHg 80%
    23:00 +9°C° 0 mm 1 m/s 733 mmHg 82%

    24 Novembro, Domingo

    Tempo Temperatura Precipitação Vento Pressão Humidade
    00:00 +8°C° 0 mm 1 m/s 733 mmHg 84%
    01:00 +8°C° 0 mm 1 m/s 733 mmHg 86%
    02:00 +8°C° 0 mm 1 m/s 733 mmHg 87%
    03:00 +7°C° 0 mm 1 m/s 733 mmHg 88%
    04:00 +7°C° 0 mm 1 m/s 733 mmHg 89%
    05:00 +7°C° 0 mm 1 m/s 734 mmHg 90%
    06:00 +6°C° 0 mm 1 m/s 734 mmHg 91%
    07:00 +7°C° 0 mm 1 m/s 734 mmHg 88%
    08:00 +8°C° 0 mm 1 m/s 735 mmHg 84%
    09:00 +8°C° 0 mm 0 m/s 735 mmHg 81%
    10:00 +10°C° 0 mm 1 m/s 735 mmHg 74%
    11:00 +11°C° 0 mm 1 m/s 735 mmHg 67%
    12:00 +12°C° 0 mm 1 m/s 735 mmHg 60%
    13:00 +13°C° 0 mm 2 m/s 735 mmHg 58%
    14:00 +13°C° 0 mm 2 m/s 735 mmHg 56%
    15:00 +14°C° 0 mm 2 m/s 734 mmHg 54%
    16:00 +12°C° 0 mm 1 m/s 735 mmHg 59%
    17:00 +11°C° 0 mm 1 m/s 735 mmHg 63%
    18:00 +10°C° 0 mm 1 m/s 735 mmHg 68%
    19:00 +9°C° 0 mm 0 m/s 736 mmHg 69%
    20:00 +8°C° 0 mm 0 m/s 736 mmHg 70%
    21:00 +8°C° 0 mm 0 m/s 737 mmHg 72%
    22:00 +8°C° 0 mm 0 m/s 737 mmHg 73%
    23:00 +7°C° 0 mm 0 m/s 737 mmHg 75%

    25 Novembro, Segunda-feira

    Tempo Temperatura Precipitação Vento Pressão Humidade
    00:00 +8°C° 0 mm 1 m/s 737 mmHg 76%
    01:00 +8°C° 0 mm 1 m/s 737 mmHg 77%
    02:00 +7°C° 0 mm 1 m/s 736 mmHg 78%
    03:00 +7°C° 0 mm 1 m/s 736 mmHg 79%
    04:00 +7°C° 0 mm 1 m/s 736 mmHg 79%
    05:00 +7°C° 0 mm 1 m/s 737 mmHg 79%
    06:00 +7°C° 0 mm 1 m/s 737 mmHg 79%
    07:00 +8°C° 0 mm 1 m/s 737 mmHg 75%
    08:00 +9°C° 0 mm 1 m/s 738 mmHg 71%
    09:00 +10°C° 0 mm 1 m/s 738 mmHg 67%
    10:00 +12°C° 0 mm 2 m/s 738 mmHg 60%
    11:00 +13°C° 0 mm 2 m/s 738 mmHg 54%
    12:00 +15°C° 0 mm 2 m/s 738 mmHg 48%
    13:00 +16°C° 0 mm 2 m/s 737 mmHg 47%
    14:00 +16°C° 0 mm 2 m/s 737 mmHg 47%
    15:00 +17°C° 0 mm 2 m/s 737 mmHg 46%
    16:00 +16°C° 0 mm 2 m/s 737 mmHg 51%
    17:00 +14°C° 0 mm 1 m/s 737 mmHg 57%
    18:00 +13°C° 0 mm 1 m/s 737 mmHg 62%
    19:00 +12°C° 0 mm 1 m/s 737 mmHg 63%
    20:00 +12°C° 0 mm 1 m/s 737 mmHg 65%
    21:00 +12°C° 0 mm 1 m/s 737 mmHg 66%
    22:00 +11°C° 0 mm 1 m/s 737 mmHg 68%
    23:00 +11°C° 0 mm 1 m/s 737 mmHg 70%
    Mostrar mais